Location: Gage
(33.9753°N, 118.1267°W)
Time: 02:17:47
(UTC+00:00)

Cosmos 1417 Rocket - Pass Details

Date: 03 August 2024
Orbit: 952 x 997 km, 83.0° (Epoch: 08 September)

Event Time Altitude Azimuth Distance (km) Brightness Sun altitude
Rises 12:08:51 0° 190° (S) 3,619 7.1 -11.5°
Reaches altitude 10° 12:11:21 10° 192° (SSW) 2,673 6.4 -11.0°
Maximum altitude 12:17:26 72° 277° (W) 997 4.4 -9.9°
Drops below altitude 10° 12:23:34 10° 2° (N) 2,684 7.2 -8.8°
Sets 12:26:05 0° 4° (N) 3,635 8.0 -8.4°
